Beale Air Force Base, CA

11:11 PM PDT on September 27, 2016 (GMT -0700)
Beale Air Force Base

Weather History for KBAB - October, 2012

Change the Weather History Date:

Saturday, October 6, 2012

  Actual Average Record
Temperature  
Mean Temperature 62 °F -  
Max Temperature 75 °F 80 °F 95 °F (1996)
Min Temperature 50 °F 53 °F 41 °F (2007)
Degree Days  
Heating Degree Days 3    
Growing Degree Days 12 (Base 50)    
Moisture  
Dew Point 50 °F    
Average Humidity 64    
Maximum Humidity 93    
Minimum Humidity 44    
Precipitation  
Precipitation 0.00 in - - ()
Sea Level Pressure  
Sea Level Pressure 30.00 in    
Wind  
Wind Speed 4 mph (ESE)    
Max Wind Speed 8 mph    
Max Gust Speed -    
Visibility 10 miles    
Events      
Averages and records for this station are not official NWS values.
T = Trace of Precipitation, MM = Missing Value Source: NWS Daily Summary

Daily Weather History Graph

Daily Weather History Graph

Search for Another Location

Airport or City:

Trip Planner

Search our weather history database for the weather conditions in past years. The results will help you decide how hot, cold, wet, or windy it might be!

Date:

Astronomy

Oct. 06, 2012 Rise Set
Actual Time 7:07 AM PDT 6:39 PM PDT
Civil Twilight 6:40 AM PDT 7:06 PM PDT
Nautical Twilight 6:09 AM PDT 7:37 PM PDT
Astronomical Twilight 5:38 AM PDT 8:08 PM PDT
Moon 11:01 PM PDT (10/6) 1:03 PM PDT (10/6)
Length of Visible Light 12h 25m
Length of Day
11h 32m
Waning Gibbous, 64% of the Moon is Illuminated
Oct 6
Waning Gibbous
Oct 8
Last Quarter
Oct 15
New
Oct 21
First Quarter
Oct 29
Full

Hourly Weather History & Observations

Time (PDT) Temp. Dew Point Humidity Pressure Visibility Wind Dir Wind Speed Gust Speed Precip Events Conditions
12:55 AM 59.2 °F 49.6 °F 71% 30.04 in 10.0 mi ESE 4.6 mph - N/A   Clear
1:55 AM 58.5 °F 49.3 °F 72% 30.05 in 10.0 mi ESE 4.6 mph - N/A   Clear
2:55 AM 58.1 °F 49.1 °F 72% 30.05 in 10.0 mi ESE 4.6 mph - N/A   Clear
3:55 AM 55.4 °F 46.9 °F 73% 30.04 in 10.0 mi Calm Calm - N/A   Clear
4:55 AM 51.6 °F 46.9 °F 84% 30.04 in 10.0 mi WNW 4.6 mph - N/A   Clear
5:55 AM 52.0 °F 47.5 °F 85% 30.04 in 10.0 mi North 4.6 mph - N/A   Clear
6:55 AM 50.2 °F 47.3 °F 90% 30.04 in 10.0 mi North 3.5 mph - N/A   Clear
7:55 AM 52.7 °F 50.7 °F 93% 30.05 in 10.0 mi Calm Calm - N/A   Clear
8:55 AM 59.4 °F 49.1 °F 69% 30.06 in 10.0 mi North 4.6 mph - N/A   Clear
9:55 AM 63.0 °F 50.2 °F 63% 30.06 in 10.0 mi ENE 3.5 mph - N/A   Clear
10:55 AM 66.9 °F 52.3 °F 59% 30.05 in 10.0 mi Variable 3.5 mph - N/A   Clear
11:55 AM 69.3 °F 52.0 °F 54% 30.04 in 10.0 mi Variable 3.5 mph - N/A   Clear
12:55 PM 72.7 °F 50.2 °F 45% 30.01 in 10.0 mi Variable 5.8 mph - N/A   Clear
1:55 PM 73.8 °F 51.4 °F 45% 29.99 in 10.0 mi SSW 8.1 mph - N/A   Clear
2:55 PM 74.8 °F 51.4 °F 44% 29.98 in 10.0 mi SSW 8.1 mph - N/A   Clear
3:55 PM 74.8 °F 51.4 °F 44% 29.96 in 10.0 mi SSE 6.9 mph - N/A   Clear
4:55 PM 74.8 °F 52.0 °F 45% 29.94 in 10.0 mi WSW 6.9 mph - N/A   Clear
5:55 PM 73.0 °F 52.9 °F 49% 29.94 in 10.0 mi SW 4.6 mph - N/A   Clear
6:55 PM 67.6 °F 52.0 °F 57% 29.94 in 10.0 mi Calm Calm - N/A   Clear
7:55 PM 68.0 °F 51.1 °F 55% 29.94 in 10.0 mi Calm Calm - N/A   Clear
8:55 PM 64.6 °F 49.6 °F 58% 29.94 in 10.0 mi ENE 5.8 mph - N/A   Clear
9:55 PM 63.3 °F 49.5 °F 61% 29.94 in 10.0 mi East 4.6 mph - N/A   Clear
10:55 PM 59.0 °F 49.6 °F 71% 29.95 in 10.0 mi Calm Calm - N/A   Clear
11:53 PM 59.0 °F 50.0 °F 72% 29.95 in 9.0 mi East 3.5 mph - N/A   Clear
11:55 PM 59.4 °F 49.6 °F 70% 29.95 in 9.0 mi Calm Calm - N/A   Clear
11:56 PM 59.0 °F 50.0 °F 72% 29.95 in 9.0 mi Calm Calm - N/A   Clear